Theta_e
293 288 285 288 289 288 286 285 285 288 292 289 289 289 292 292 290 289 289 289 289 289 291 291 291 291 291 291 292 293 294 295 298 300 303 305 305 307 311 312 313 316 317 315
289 286 292 292 291 289 288 286 285 289 292 289 288 288 288 290 290 289 288 288 288 288 288 289 289 289 289 289 291 291 292 293 294 297 297 298 298 297 298 300 306 308 311 312
287 291 294 292 291 290 288 287 286 288 288 287 285 285 286 289 289 289 289 288 288 287 287 288 288 288 288 287 288 290 291 292 292 294 295 295 296 295 295 296 296 299 302 303
290 294 293 290 290 291 286 290 289 287 284 280 285 279 284 287 286 287 286 285 285 286 287 288 287 287 287 286 287 288 289 290 291 292 292 291 290 289 290 291 292 294 295 295
290 289 289 289 290 291 288 289 287 286 282 281 281 279 282 286 284 284 284 285 285 286 286 286 286 287 286 286 286 286 288 288 289 289 290 289 288 289 289 289 289 290 291 291
290 291 290 291 291 290 290 287 287 283 281 277 281 281 281 284 285 284 285 285 285 285 285 285 286 286 285 284 284 285 286 286 287 287 287 287 286 286 285 285 286 287 288 288
287 288 289 291 288 288 287 284 279 277 275 277 284 280 283 285 286 286 284 284 284 284 284 284 284 284 284 283 283 285 284 284 285 285 286 286 285 285 284 284 284 284 285 285
285 283 288 290 290 288 285 285 278 270 273 276 283 280 283 285 286 286 286 285 284 284 284 283 284 284 283 283 283 283 283 283 283 284 284 284 285 285 284 283 283 283 283 284
284 284 287 288 288 290 285 283 286 280 281 279 280 281 285 285 284 283 283 283 283 283 283 283 283 283 283 283 282 282 282 282 283 283 283 283 285 285 284 284 285 284 283 284
289 282 289 288 289 287 286 288 281 280 268 273 277 279 280 281 282 283 282 282 283 284 284 283 283 282 282 282 282 282 282 282 283 283 283 283 282 284 283 282 283 283 283 283
290 286 284 287 285 285 282 282 282 284 279 271 269 277 284 285 284 282 283 284 284 283 283 282 282 282 282 282 283 282 282 283 283 283 283 282 282 282 282 280 281 280 281 282
290 286 278 283 287 287 286 284 283 280 276 277 278 279 287 287 285 284 284 285 284 285 283 282 282 282 281 281 281 280 281 281 281 282 283 282 281 282 280 280 280 280 280 281
291 282 271 277 281 284 283 284 285 284 281 273 277 277 285 284 284 284 285 285 284 283 280 280 280 280 280 280 280 279 280 280 281 280 280 280 279 280 280 280 280 280 279 280
293 281 278 277 277 281 278 281 282 279 271 272 278 277 281 283 283 283 282 284 283 280 279 279 279 279 279 279 279 278 279 279 280 279 279 278 278 278 278 279 279 278 279 278
288 278 282 280 281 280 279 279 281 279 279 274 278 277 281 282 280 281 282 281 281 279 277 277 278 278 278 279 278 279 279 279 279 278 278 278 278 278 278 278 278 277 278 278
284 274 277 271 279 281 277 279 278 280 280 279 279 278 284 282 279 278 278 281 280 279 279 278 278 279 279 279 279 279 278 279 279 277 277 278 278 278 277 277 277 277 276 276
280 275 271 271 275 273 267 272 277 277 278 277 273 277 274 277 279 278 278 277 277 278 278 278 279 279 279 279 279 278 278 278 277 277 276 276 276 275 275 275 274 273 272 273
279 276 275 269 265 260 274 275 276 276 277 275 274 271 274 276 276 277 277 277 278 278 279 279 279 278 279 278 277 277 277 276 276 274 272 273 273 271 272 271 270 270 270 269
282 278 271 269 262 268 275 275 274 273 272 273 272 273 277 276 275 274 278 278 278 279 280 279 279 278 277 276 277 276 275 274 274 273 272 272 270 268 269 267 267 268 267 266
278 279 273 258 259 260 270 272 275 275 265 267 268 269 273 275 267 272 277 279 279 280 280 279 279 277 276 275 275 273 272 271 270 271 271 270 268 263 265 265 264 265 264 265
263 264 272 269 266 264 273 275 276 264 269 270 270 274 274 272 275 278 279 278 279 280 279 278 276 276 274 273 272 271 270 269 270 268 268 267 266 264 263 263 263 262 262 263
267 264 262 262 262 261 273 273 271 274 277 276 277 277 276 277 278 278 278 278 279 278 277 276 274 273 272 271 270 268 267 269 267 266 265 262 261 261 262 260 260 260 260 259
267 269 265 268 267 275 275 277 280 279 277 278 278 279 278 278 277 278 278 277 278 276 276 273 271 271 270 269 268 265 266 266 265 258 257 257 259 260 261 259 259 259 259 259
273 274 270 269 273 275 278 280 280 280 279 279 280 279 278 277 278 278 277 277 277 274 272 269 268 268 268 267 267 264 264 264 255 252 256 258 259 259 260 261 260 259 259 259
273 273 270 270 275 276 277 277 278 279 279 279 278 278 278 277 278 278 277 275 275 272 270 268 267 267 266 266 264 262 262 260 256 256 258 258 259 258 259 260 260 261 262 263
276 275 272 270 277 276 277 279 279 278 278 278 278 277 277 277 277 276 274 273 270 268 267 266 265 264 264 263 262 260 257 257 254 256 258 258 259 259 260 260 259 265 267 268
Wind_Speed
1 4 8 13 10 4 3 3 6 5 7 3 6 7 14 7 2 10 7 7 10 11 9 11 12 12 13 16 17 17 17 16 11 5 4 4 4 4 4 4 5 3 1 2
4 8 13 3 5 5 5 4 7 7 5 1 5 13 3 8 6 6 7 8 9 10 11 12 13 13 15 14 15 17 16 15 12 8 4 4 3 3 3 7 9 10 6 1
8 6 4 8 4 4 6 6 5 8 5 3 3 8 2 6 8 10 11 10 11 9 9 11 12 13 14 16 15 15 15 15 14 12 8 6 5 5 7 9 9 10 11 10
6 6 6 3 6 6 7 6 6 3 3 4 2 6 5 4 5 8 8 7 7 7 7 8 9 11 12 11 11 13 14 15 14 14 11 13 8 7 4 5 5 8 13 13
7 4 5 5 8 7 8 2 2 1 3 3 3 1 8 7 5 5 5 6 6 6 6 7 7 8 8 9 10 9 12 14 13 14 12 9 9 5 5 7 11 12 11 12
6 1 4 8 2 5 3 4 7 5 3 2 8 8 6 6 7 7 6 6 6 6 5 6 5 6 7 7 7 9 11 12 11 11 12 11 11 9 9 9 9 8 7 9
1 5 2 2 3 3 4 6 3 4 2 6 3 3 7 8 0 15 14 8 7 6 6 6 6 6 6 8 8 8 10 12 10 12 13 12 10 11 11 8 6 7 6 6
5 4 7 4 5 7 5 8 6 7 4 4 4 7 3 4 8 11 8 7 6 6 5 5 5 6 6 6 7 7 8 8 8 9 10 8 9 7 7 7 6 5 4 4
6 5 1 2 2 6 4 5 3 6 2 3 5 1 1 4 6 6 7 7 7 6 6 6 5 5 6 7 7 7 7 7 7 7 6 7 7 8 7 7 7 7 6 7
5 2 3 1 2 3 5 6 4 3 2 6 5 6 5 8 9 7 7 8 7 7 7 6 6 6 5 6 5 6 6 6 5 6 5 5 5 4 4 4 5 5 6 7
5 4 3 3 5 8 1 2 2 3 6 6 2 7 3 10 15 14 10 9 10 8 7 6 6 6 6 5 5 4 5 5 5 5 5 5 5 5 5 5 5 5 6 5
5 5 5 8 2 3 2 7 7 6 6 4 2 10 2 8 13 12 11 10 7 6 7 7 7 7 6 5 4 4 3 2 1 1 3 5 6 6 7 7 7 7 9 9
8 1 3 8 5 1 5 4 3 5 3 6 5 7 1 5 7 9 7 7 7 7 8 7 6 6 6 6 5 5 5 5 4 2 1 2 4 4 5 6 8 9 9 10
5 4 9 10 6 3 3 3 3 5 4 3 10 6 3 5 8 6 8 8 8 9 8 7 6 7 6 6 6 6 6 6 6 6 4 3 4 5 5 6 6 7 7 8
5 6 4 1 3 2 4 7 8 8 6 8 13 10 17 8 7 9 7 2 6 7 8 8 8 7 7 7 7 6 6 5 4 3 3 5 5 5 5 6 6 6 6 7
3 1 3 3 2 5 8 12 7 13 14 11 15 21 16 7 4 5 7 7 6 6 7 7 7 7 8 8 7 6 3 3 3 1 1 3 3 5 6 7 9 10 12 12
5 7 4 6 4 4 10 9 18 14 10 8 12 15 1 4 5 6 7 6 6 6 6 7 8 8 8 7 6 4 4 3 3 4 5 6 7 8 9 10 12 13 14 15
6 6 2 2 3 2 6 3 5 10 10 5 3 3 5 4 2 4 5 7 6 6 6 7 7 7 5 3 5 6 4 3 3 3 3 4 5 6 10 13 13 14 13 14
2 5 4 4 5 7 14 7 8 8 8 6 7 3 4 3 3 4 5 6 7 7 7 7 7 5 5 6 5 5 3 3 2 2 2 4 4 7 10 10 12 12 13 14
3 1 5 3 6 11 7 3 2 5 6 6 6 5 6 6 3 7 7 6 8 8 6 7 7 5 7 5 5 4 3 3 2 3 4 5 6 3 8 11 12 12 11 14
4 1 14 10 8 10 9 5 1 6 8 4 6 6 7 6 9 5 8 6 6 6 7 5 7 7 6 5 5 4 2 2 1 2 5 5 6 9 10 11 10 11 12 13
9 8 6 3 2 9 8 5 8 7 3 6 6 6 6 9 8 7 9 8 8 8 7 8 6 6 4 5 4 4 2 0 1 1 3 5 6 7 9 10 11 11 12 12
3 9 9 13 10 5 8 6 12 6 6 6 6 8 9 9 10 11 10 9 9 8 8 5 7 7 5 4 4 2 1 3 2 3 5 6 7 8 9 9 11 10 10 9
5 6 5 6 5 7 9 13 5 7 9 8 9 9 8 10 10 11 9 8 7 7 8 6 7 6 5 4 2 1 3 2 2 4 7 7 7 8 8 7 8 8 8 9
9 8 5 4 8 5 7 8 10 10 10 9 8 10 13 10 13 11 9 7 6 7 6 6 6 5 5 4 2 1 3 2 4 5 6 6 6 6 8 8 9 9 10 12
9 8 5 8 15 9 8 9 9 9 10 11 11 9 9 10 14 7 6 4 6 7 6 6 5 5 4 2 4 2 3 3 4 5 5 5 6 6 7 8 9 20 21 25
Wind_Direction
209 113 206 207 200 184 176 213 239 258 257 224 256 276 290 331 15 101 99 96 81 63 43 29 24 21 26 27 29 27 29 17 21 13 22 36 32 358 24 26 41 55 26 157
59 223 231 173 172 206 237 246 258 272 260 186 292 291 40 23 34 71 90 69 70 62 42 32 26 26 31 31 27 27 29 29 28 17 357 41 65 57 36 8 22 18 19 64
170 222 150 171 200 185 219 201 234 233 345 296 331 294 183 58 71 64 53 61 60 61 53 36 33 30 31 31 26 30 30 31 26 26 25 18 26 22 21 23 22 14 16 18
234 238 187 182 239 184 278 208 227 186 110 228 49 279 304 148 83 64 69 63 62 57 53 52 49 49 45 34 27 34 37 36 36 32 41 51 53 49 359 2 8 33 33 30
245 189 152 172 222 156 229 100 131 167 170 74 296 317 259 131 148 132 108 98 92 88 81 63 47 45 37 35 37 29 36 37 33 41 46 46 53 44 32 28 24 17 21 29
243 284 178 201 145 168 110 51 37 48 99 285 215 177 266 187 183 148 145 139 126 106 92 82 75 71 60 39 43 41 42 39 32 34 39 54 55 45 45 38 32 17 19 16
224 224 241 165 117 54 86 69 312 338 2 231 139 143 252 321 348 154 151 148 129 133 117 94 78 69 67 59 50 59 56 49 39 43 40 35 34 35 39 30 37 25 17 15
183 286 172 182 188 179 173 164 164 219 213 268 328 239 288 10 73 103 116 133 140 141 124 124 129 109 88 75 72 82 75 62 44 44 40 36 41 46 34 20 20 10 7 8
168 258 159 171 162 133 187 177 171 106 354 283 246 64 49 73 80 115 135 143 175 163 168 160 127 109 95 82 69 63 47 66 64 61 60 44 38 33 32 24 18 357 353 0
217 140 239 185 101 53 149 168 82 4 168 241 273 264 207 188 179 172 174 192 194 196 185 159 140 125 112 112 111 91 95 76 64 68 59 56 31 27 36 22 13 357 330 328
145 123 255 120 209 186 129 197 176 167 152 177 252 257 218 174 180 182 199 207 205 201 183 166 150 139 132 130 114 111 75 65 45 38 36 33 21 348 11 7 350 345 313 316
193 141 179 199 291 297 214 191 167 188 225 242 168 263 338 181 173 174 199 214 214 194 176 164 154 157 150 147 139 139 143 124 149 9 19 1 354 352 353 338 333 326 319 331
177 217 31 343 345 270 205 199 151 106 70 207 194 243 8 155 166 203 194 229 220 175 170 160 157 168 177 180 183 193 197 207 206 207 268 300 300 306 307 301 310 318 321 314
101 146 173 218 186 141 188 174 141 120 138 195 227 288 146 208 198 244 267 240 200 183 166 170 179 193 190 197 200 202 209 204 194 192 208 248 273 273 275 276 277 277 278 283
138 192 173 48 129 153 225 206 178 201 197 198 266 233 261 219 234 250 260 229 176 173 180 188 193 200 205 212 219 214 212 198 195 197 236 254 255 250 252 258 259 259 256 267
21 141 88 316 231 223 264 263 202 222 243 245 253 268 266 288 163 165 202 201 190 190 198 208 218 215 220 223 227 230 220 174 134 127 313 293 312 336 335 326 326 326 320 316
139 134 108 255 61 52 303 222 235 249 221 224 232 244 248 244 219 221 219 198 191 188 193 203 216 223 230 236 226 201 139 112 47 13 2 353 349 342 341 337 329 322 317 314
142 113 92 216 33 260 254 268 249 232 253 202 257 240 211 228 268 180 185 180 202 206 206 222 231 231 219 141 112 125 109 75 48 359 338 348 1 347 332 323 317 315 311 309
149 129 145 186 203 312 286 237 183 177 271 198 189 224 230 168 72 281 217 179 182 199 222 229 231 203 153 142 134 116 82 60 39 9 358 31 360 323 314 306 302 304 303 300
141 39 157 114 171 213 243 289 90 106 285 224 153 207 187 135 148 241 207 193 221 229 229 220 191 148 138 144 132 119 105 57 338 350 359 339 318 280 297 295 297 294 289 291
89 77 212 219 237 281 246 204 199 106 249 186 188 212 171 186 208 215 190 228 229 236 223 165 162 166 155 138 124 124 136 254 351 20 325 310 309 301 291 288 289 291 290 290
158 154 191 122 210 275 176 70 166 207 189 185 201 200 195 219 244 217 225 236 246 209 178 170 151 147 139 127 116 146 216 115 19 291 298 290 283 283 290 285 288 290 289 289
225 192 182 184 202 217 207 191 218 165 181 210 196 219 206 216 233 236 232 232 230 205 183 152 154 149 147 134 123 180 243 322 314 322 287 281 281 277 276 278 287 292 285 290
253 170 211 86 224 225 202 226 227 192 210 219 214 218 210 222 237 239 235 238 222 168 165 145 145 156 165 153 150 169 281 294 295 278 278 279 276 284 280 277 284 283 285 289
207 154 153 249 258 248 244 230 232 235 221 234 235 225 237 227 245 233 245 230 197 158 139 144 152 155 161 180 211 244 278 274 269 262 267 275 269 276 289 279 287 283 282 283
198 212 205 229 244 220 242 232 224 215 225 224 227 249 236 215 233 214 229 179 152 148 141 148 147 149 164 210 264 250 250 248 252 274 276 275 285 287 289 291 294 293 302 303